TimeCDT,TemperatureF,Dew PointF,Humidity,Sea Level PressureIn,VisibilityMPH,Wind Direction,Wind SpeedMPH,Gust SpeedMPH,PrecipitationIn,Events,Conditions,WindDirDegrees,DateUTC
12:15 AM,68.5,68.5,100,30.04,7.0,Calm,Calm,-,N/A,,Scattered Clouds,0,2013-10-03 05:15:00
12:35 AM,68.5,68.5,100,30.03,10.0,Calm,Calm,-,N/A,,Mostly Cloudy,0,2013-10-03 05:35:00
12:55 AM,68.9,68.9,100,30.03,10.0,Calm,Calm,-,N/A,,Scattered Clouds,0,2013-10-03 05:55:00
1:15 AM,68.9,68.9,100,30.03,10.0,Calm,Calm,-,N/A,,Clear,0,2013-10-03 06:15:00
1:35 AM,68.9,68.9,100,30.03,10.0,Calm,Calm,-,N/A,,Clear,0,2013-10-03 06:35:00
1:55 AM,68.9,68.9,100,30.03,10.0,SSE,3.5,-,N/A,,Scattered Clouds,160,2013-10-03 06:55:00
2:15 AM,69.1,69.1,100,30.03,10.0,Calm,Calm,-,N/A,,Mostly Cloudy,0,2013-10-03 07:15:00
2:35 AM,68.9,68.9,100,30.02,10.0,Calm,Calm,-,N/A,,Overcast,0,2013-10-03 07:35:00
2:55 AM,68.9,68.9,100,30.02,10.0,Calm,Calm,-,N/A,,Overcast,0,2013-10-03 07:55:00
3:15 AM,68.9,68.9,100,30.02,7.0,Calm,Calm,-,N/A,,Overcast,0,2013-10-03 08:15:00
3:35 AM,68.7,68.7,100,30.02,7.0,Calm,Calm,-,N/A,,Overcast,0,2013-10-03 08:35:00
3:55 AM,68.9,68.9,100,30.02,7.0,Calm,Calm,-,N/A,,Overcast,0,2013-10-03 08:55:00
4:15 AM,69.3,69.3,100,30.02,10.0,Calm,Calm,-,N/A,,Mostly Cloudy,0,2013-10-03 09:15:00
4:35 AM,69.1,69.1,100,30.02,10.0,Calm,Calm,-,N/A,,Scattered Clouds,0,2013-10-03 09:35:00
4:55 AM,68.7,68.7,100,30.03,10.0,Calm,Calm,-,N/A,,Mostly Cloudy,0,2013-10-03 09:55:00
5:15 AM,68.5,68.5,100,30.03,10.0,Calm,Calm,-,N/A,,Mostly Cloudy,0,2013-10-03 10:15:00
5:35 AM,68.9,68.9,100,30.03,10.0,Calm,Calm,-,N/A,,Overcast,0,2013-10-03 10:35:00
5:55 AM,68.9,68.9,100,30.03,10.0,Calm,Calm,-,N/A,,Overcast,0,2013-10-03 10:55:00
6:15 AM,68.9,68.9,100,30.04,10.0,Calm,Calm,-,N/A,,Mostly Cloudy,0,2013-10-03 11:15:00
6:35 AM,68.2,68.2,100,30.04,7.0,Calm,Calm,-,N/A,,Scattered Clouds,0,2013-10-03 11:35:00
6:55 AM,68.0,68.0,100,30.04,5.0,Calm,Calm,-,N/A,,Scattered Clouds,0,2013-10-03 11:55:00
7:15 AM,68.0,68.0,100,30.05,5.0,Calm,Calm,-,N/A,,Scattered Clouds,0,2013-10-03 12:15:00
7:35 AM,68.5,68.5,100,30.05,7.0,Calm,Calm,-,N/A,,Scattered Clouds,0,2013-10-03 12:35:00
7:55 AM,69.1,69.1,100,30.06,7.0,Calm,Calm,-,N/A,,Clear,0,2013-10-03 12:55:00
8:15 AM,70.0,70.0,100,30.06,10.0,Calm,Calm,-,N/A,,Clear,0,2013-10-03 13:15:00
8:35 AM,72.5,69.8,91,30.06,10.0,South,4.6,-,N/A,,Clear,180,2013-10-03 13:35:00
8:55 AM,72.9,69.6,90,30.06,10.0,South,3.5,-,N/A,,Clear,180,2013-10-03 13:55:00
9:15 AM,73.0,69.4,88,30.06,10.0,South,3.5,-,N/A,,Clear,170,2013-10-03 14:15:00
9:35 AM,75.4,70.0,83,30.06,10.0,South,5.8,-,N/A,,Clear,190,2013-10-03 14:35:00
9:55 AM,75.9,69.8,81,30.05,10.0,South,3.5,-,N/A,,Scattered Clouds,180,2013-10-03 14:55:00
10:15 AM,76.6,69.1,77,30.05,10.0,South,5.8,-,N/A,,Clear,180,2013-10-03 15:15:00
10:35 AM,79.0,66.7,66,30.05,10.0,South,6.9,-,N/A,,Clear,180,2013-10-03 15:35:00
10:55 AM,80.1,66.0,62,30.04,10.0,South,6.9,-,N/A,,Clear,190,2013-10-03 15:55:00
11:15 AM,81.0,64.8,58,30.03,10.0,SSW,8.1,-,N/A,,Clear,200,2013-10-03 16:15:00
11:35 AM,81.3,64.9,57,30.03,10.0,South,9.2,-,N/A,,Clear,180,2013-10-03 16:35:00
11:55 AM,82.4,63.3,52,30.03,10.0,SSW,12.7,17.3,N/A,,Clear,200,2013-10-03 16:55:00
12:15 PM,82.9,61.5,48,30.03,10.0,South,12.7,-,N/A,,Clear,190,2013-10-03 17:15:00
12:35 PM,83.1,63.1,51,30.03,10.0,SSW,6.9,-,N/A,,Clear,210,2013-10-03 17:35:00
12:55 PM,82.0,63.3,53,30.02,10.0,South,8.1,-,N/A,,Mostly Cloudy,190,2013-10-03 17:55:00
1:15 PM,82.0,62.6,52,30.01,10.0,SSW,6.9,-,N/A,,Scattered Clouds,210,2013-10-03 18:15:00
1:35 PM,84.2,63.1,49,30.00,10.0,South,6.9,-,N/A,,Scattered Clouds,170,2013-10-03 18:35:00
1:55 PM,84.2,62.2,47,30.00,10.0,South,6.9,16.1,N/A,,Scattered Clouds,190,2013-10-03 18:55:00
2:15 PM,84.6,62.6,48,29.99,10.0,South,5.8,-,N/A,,Scattered Clouds,170,2013-10-03 19:15:00
2:35 PM,84.4,62.1,47,29.99,10.0,South,5.8,-,N/A,,Clear,190,2013-10-03 19:35:00
2:55 PM,84.9,63.0,48,29.98,10.0,SSW,11.5,-,N/A,,Scattered Clouds,200,2013-10-03 19:55:00
3:15 PM,84.9,62.6,47,29.97,10.0,South,9.2,-,N/A,,Scattered Clouds,190,2013-10-03 20:15:00
3:35 PM,84.6,62.4,47,29.97,10.0,SSE,6.9,-,N/A,,Scattered Clouds,150,2013-10-03 20:35:00
3:55 PM,83.7,62.8,49,29.96,10.0,SSE,6.9,-,N/A,,Scattered Clouds,160,2013-10-03 20:55:00
4:15 PM,83.1,62.6,50,29.96,10.0,South,6.9,-,N/A,,Clear,170,2013-10-03 21:15:00
4:35 PM,83.3,62.8,50,29.96,10.0,South,5.8,-,N/A,,Clear,170,2013-10-03 21:35:00
4:55 PM,80.8,62.6,54,29.96,10.0,South,8.1,-,N/A,,Clear,170,2013-10-03 21:55:00
5:15 PM,81.9,63.1,53,29.95,10.0,SSE,8.1,-,N/A,,Clear,150,2013-10-03 22:15:00
5:35 PM,82.2,63.3,53,29.95,10.0,SSE,5.8,-,N/A,,Clear,160,2013-10-03 22:35:00
5:55 PM,80.1,63.7,57,29.96,10.0,SSE,4.6,-,N/A,,Clear,160,2013-10-03 22:55:00
6:15 PM,78.8,63.9,60,29.96,10.0,SSE,3.5,-,N/A,,Clear,160,2013-10-03 23:15:00
6:35 PM,77.0,64.4,65,29.97,10.0,SSE,3.5,-,N/A,,Clear,160,2013-10-03 23:35:00
6:55 PM,76.5,64.4,66,29.97,10.0,Calm,Calm,-,N/A,,Clear,0,2013-10-03 23:55:00
7:15 PM,76.1,64.4,67,29.97,10.0,SSE,3.5,-,N/A,,Clear,160,2013-10-04 00:15:00
7:35 PM,75.6,64.4,68,29.98,10.0,SSE,3.5,-,N/A,,Clear,150,2013-10-04 00:35:00
7:55 PM,75.4,64.2,68,29.98,10.0,Calm,Calm,-,N/A,,Clear,0,2013-10-04 00:55:00
8:15 PM,74.5,64.4,71,29.99,10.0,Calm,Calm,-,N/A,,Clear,0,2013-10-04 01:15:00
8:35 PM,74.3,64.0,70,29.99,10.0,SSE,3.5,-,N/A,,Clear,150,2013-10-04 01:35:00
8:55 PM,74.3,64.2,71,30.00,10.0,SSE,3.5,-,N/A,,Clear,150,2013-10-04 01:55:00
9:15 PM,74.3,64.2,71,30.00,10.0,SSE,4.6,-,N/A,,Clear,150,2013-10-04 02:15:00
9:35 PM,74.3,64.2,71,30.00,10.0,South,4.6,-,N/A,,Clear,170,2013-10-04 02:35:00
9:55 PM,74.3,64.2,71,30.00,10.0,SSE,3.5,-,N/A,,Clear,150,2013-10-04 02:55:00
10:15 PM,75.0,64.4,69,30.00,10.0,SSE,3.5,-,N/A,,Clear,160,2013-10-04 03:15:00
10:35 PM,75.2,64.4,69,30.00,10.0,SSE,5.8,-,N/A,,Clear,160,2013-10-04 03:35:00
11:35 PM,73.8,65.3,75,30.00,10.0,South,5.8,-,N/A,,Scattered Clouds,170,2013-10-04 04:35:00
11:55 PM,73.6,65.7,76,30.00,10.0,South,8.1,-,N/A,,Scattered Clouds,170,2013-10-04 04:55:00